Year,Month,Day,Hour,Minute,Value (Times are PST for windgust in km/hr)
2010,07,13,00,00,9.60
2010,07,13,00,01,11.30
2010,07,13,00,02,9.60
2010,07,13,00,03,9.60
2010,07,13,00,04,4.80
2010,07,13,00,05,8.10
2010,07,13,00,06,8.10
2010,07,13,00,07,11.30
2010,07,13,00,08,14.50
2010,07,13,00,09,6.40
2010,07,13,00,10,3.20
2010,07,13,00,11,9.60
2010,07,13,00,12,8.10
2010,07,13,00,13,1.60
2010,07,13,00,14,3.20
2010,07,13,00,15,6.40
2010,07,13,00,16,6.40
2010,07,13,00,17,6.40
2010,07,13,00,18,1.60
2010,07,13,00,19,3.20
2010,07,13,00,20,4.80
2010,07,13,00,21,3.20
2010,07,13,00,22,16.10
2010,07,13,00,23,9.60
2010,07,13,00,24,11.30
2010,07,13,00,25,4.80
2010,07,13,00,26,4.80
2010,07,13,00,27,8.10
2010,07,13,00,28,6.40
2010,07,13,00,29,4.80
2010,07,13,00,30,6.40
2010,07,13,00,31,8.10
2010,07,13,00,32,4.80
2010,07,13,00,33,4.80
2010,07,13,00,34,8.10
2010,07,13,00,35,6.40
2010,07,13,00,36,9.60
2010,07,13,00,37,17.70
2010,07,13,00,38,11.30
2010,07,13,00,39,9.60
2010,07,13,00,40,6.40
2010,07,13,00,41,3.20
2010,07,13,00,42,1.60
2010,07,13,00,43,8.10
2010,07,13,00,44,4.80
2010,07,13,00,45,1.60
2010,07,13,00,46,1.60
2010,07,13,00,47,6.40
2010,07,13,00,48,8.10
2010,07,13,00,49,3.20
2010,07,13,00,50,4.80
2010,07,13,00,51,4.80
2010,07,13,00,52,6.40
2010,07,13,00,53,8.10
2010,07,13,00,54,6.40
2010,07,13,00,55,3.20
2010,07,13,00,56,1.60
2010,07,13,00,58,1.60
2010,07,13,01,00,1.60
2010,07,13,01,01,8.10
2010,07,13,01,02,4.80
2010,07,13,01,03,3.20
2010,07,13,01,04,3.20
2010,07,13,01,06,6.40
2010,07,13,01,07,4.80
2010,07,13,01,08,4.80
2010,07,13,01,09,8.10
2010,07,13,01,10,4.80
2010,07,13,01,11,3.20
2010,07,13,01,12,4.80
2010,07,13,01,13,1.60
2010,07,13,01,15,4.80
2010,07,13,01,16,4.80
2010,07,13,01,17,3.20
2010,07,13,01,18,4.80
2010,07,13,01,19,4.80
2010,07,13,01,20,3.20
2010,07,13,01,21,6.40
2010,07,13,01,22,14.50
2010,07,13,01,23,1.60
2010,07,13,01,24,4.80
2010,07,13,01,25,11.30
2010,07,13,01,26,4.80
2010,07,13,01,27,3.20
2010,07,13,01,28,3.20
2010,07,13,01,29,9.60
2010,07,13,01,30,4.80
2010,07,13,01,31,3.20
2010,07,13,01,32,3.20
2010,07,13,01,33,1.60
2010,07,13,01,34,3.20
2010,07,13,01,35,3.20
2010,07,13,01,36,3.20
2010,07,13,01,37,4.80
2010,07,13,01,38,1.60
2010,07,13,01,39,4.80
2010,07,13,01,41,11.30
2010,07,13,01,42,4.80
2010,07,13,01,43,8.10
2010,07,13,01,44,4.80
2010,07,13,01,45,6.40
2010,07,13,01,46,6.40
2010,07,13,01,47,4.80
2010,07,13,01,48,3.20
2010,07,13,01,50,1.60
2010,07,13,01,51,3.20
2010,07,13,01,52,3.20
2010,07,13,01,53,4.80
2010,07,13,01,54,1.60
2010,07,13,01,55,1.60
2010,07,13,01,56,3.20
2010,07,13,01,57,1.60
2010,07,13,01,58,1.60
2010,07,13,01,59,1.60
2010,07,13,02,02,1.60
2010,07,13,02,06,3.20
2010,07,13,02,07,1.60
2010,07,13,02,08,3.20
2010,07,13,02,09,1.60
2010,07,13,02,11,1.60
2010,07,13,02,13,1.60
2010,07,13,02,14,3.20
2010,07,13,02,15,4.80
2010,07,13,02,16,1.60
2010,07,13,02,20,3.20
2010,07,13,02,22,3.20
2010,07,13,02,23,1.60
2010,07,13,02,27,4.80
2010,07,13,02,28,1.60
2010,07,13,02,30,1.60
2010,07,13,02,31,1.60
2010,07,13,02,32,1.60
2010,07,13,02,33,1.60
2010,07,13,02,34,1.60
2010,07,13,02,37,3.20
2010,07,13,02,38,1.60
2010,07,13,02,46,1.60
2010,07,13,02,51,1.60
2010,07,13,02,54,1.60
2010,07,13,02,55,1.60
2010,07,13,02,56,3.20
2010,07,13,02,57,1.60
2010,07,13,02,58,3.20
2010,07,13,03,00,1.60
2010,07,13,03,01,3.20
2010,07,13,03,02,3.20
2010,07,13,03,03,1.60
2010,07,13,03,07,1.60
2010,07,13,03,08,3.20
2010,07,13,03,12,3.20
2010,07,13,03,20,1.60
2010,07,13,03,44,1.60
2010,07,13,03,45,1.60
2010,07,13,04,07,3.20
2010,07,13,04,09,3.20
2010,07,13,04,10,1.60
2010,07,13,04,12,4.80
2010,07,13,04,13,4.80
2010,07,13,04,17,1.60
2010,07,13,04,19,3.20
2010,07,13,04,20,1.60
2010,07,13,04,21,4.80
2010,07,13,04,22,3.20
2010,07,13,04,25,1.60
2010,07,13,04,26,1.60
2010,07,13,04,27,3.20
2010,07,13,04,28,1.60
2010,07,13,04,29,1.60
2010,07,13,04,30,1.60
2010,07,13,04,32,1.60
2010,07,13,04,33,1.60
2010,07,13,04,34,1.60
2010,07,13,04,37,1.60
2010,07,13,04,40,1.60
2010,07,13,04,43,3.20
2010,07,13,04,44,1.60
2010,07,13,04,47,4.80
2010,07,13,04,49,3.20
2010,07,13,04,51,1.60
2010,07,13,04,59,1.60
2010,07,13,05,00,4.80
2010,07,13,05,01,4.80
2010,07,13,05,02,4.80
2010,07,13,05,03,3.20
2010,07,13,05,04,1.60
2010,07,13,05,05,1.60
2010,07,13,05,06,1.60
2010,07,13,05,12,1.60
2010,07,13,05,32,1.60
2010,07,13,05,33,1.60
2010,07,13,05,34,4.80
2010,07,13,05,35,4.80
2010,07,13,05,36,3.20
2010,07,13,05,37,6.40
2010,07,13,05,38,8.10
2010,07,13,05,39,4.80
2010,07,13,05,40,3.20
2010,07,13,05,41,3.20
2010,07,13,05,42,6.40
2010,07,13,05,43,4.80
2010,07,13,05,44,1.60
2010,07,13,05,45,1.60
2010,07,13,05,52,3.20
2010,07,13,05,53,3.20
2010,07,13,05,55,3.20
2010,07,13,06,01,1.60
2010,07,13,06,02,3.20
2010,07,13,06,03,3.20
2010,07,13,06,04,1.60
2010,07,13,06,05,3.20
2010,07,13,06,06,4.80
2010,07,13,06,07,1.60
2010,07,13,06,08,1.60
2010,07,13,06,09,1.60
2010,07,13,06,11,1.60
2010,07,13,06,12,1.60
2010,07,13,06,15,1.60
2010,07,13,06,25,1.60
2010,07,13,06,26,4.80
2010,07,13,06,27,6.40
2010,07,13,06,28,4.80
2010,07,13,06,29,8.10
2010,07,13,06,30,6.40
2010,07,13,06,31,6.40
2010,07,13,06,32,4.80
2010,07,13,06,33,4.80
2010,07,13,06,34,8.10
2010,07,13,06,35,6.40
2010,07,13,06,36,4.80
2010,07,13,06,37,4.80
2010,07,13,06,38,6.40
2010,07,13,06,39,4.80
2010,07,13,06,40,4.80
2010,07,13,06,41,4.80
2010,07,13,06,42,3.20
2010,07,13,06,44,1.60
2010,07,13,06,45,4.80
2010,07,13,06,46,4.80
2010,07,13,06,47,4.80
2010,07,13,06,48,3.20
2010,07,13,06,49,4.80
2010,07,13,06,50,4.80
2010,07,13,06,51,1.60
2010,07,13,06,52,1.60
2010,07,13,07,00,1.60
2010,07,13,07,02,1.60
2010,07,13,07,03,4.80
2010,07,13,07,04,1.60
2010,07,13,07,05,1.60
2010,07,13,07,06,1.60
2010,07,13,07,07,3.20
2010,07,13,07,08,1.60
2010,07,13,07,09,3.20
2010,07,13,07,11,1.60
2010,07,13,07,12,3.20
2010,07,13,07,17,1.60
2010,07,13,07,22,1.60
2010,07,13,07,23,1.60
2010,07,13,07,29,4.80
2010,07,13,07,30,4.80
2010,07,13,07,31,1.60
2010,07,13,07,32,3.20
2010,07,13,07,35,1.60
2010,07,13,07,36,1.60
2010,07,13,07,37,4.80
2010,07,13,07,38,4.80
2010,07,13,07,39,1.60
2010,07,13,07,40,4.80
2010,07,13,07,42,3.20
2010,07,13,07,43,4.80
2010,07,13,07,44,4.80
2010,07,13,07,45,3.20
2010,07,13,07,46,3.20
2010,07,13,07,47,1.60
2010,07,13,07,48,1.60
2010,07,13,07,54,3.20
2010,07,13,07,55,4.80
2010,07,13,07,56,1.60
2010,07,13,07,57,1.60
2010,07,13,07,58,1.60
2010,07,13,08,04,1.60
2010,07,13,08,05,4.80
2010,07,13,08,06,9.60
2010,07,13,08,07,8.10
2010,07,13,08,08,8.10
2010,07,13,08,09,6.40
2010,07,13,08,10,6.40
2010,07,13,08,11,6.40
2010,07,13,08,12,6.40
2010,07,13,08,13,4.80
2010,07,13,08,15,1.60
2010,07,13,08,16,8.10
2010,07,13,08,17,9.60
2010,07,13,08,18,6.40
2010,07,13,08,19,4.80
2010,07,13,08,20,1.60
2010,07,13,08,21,3.20
2010,07,13,08,22,6.40
2010,07,13,08,23,1.60
2010,07,13,08,24,6.40
2010,07,13,08,25,3.20
2010,07,13,08,26,1.60
2010,07,13,08,27,4.80
2010,07,13,08,28,8.10
2010,07,13,08,29,8.10
2010,07,13,08,30,6.40
2010,07,13,08,31,6.40
2010,07,13,08,32,9.60
2010,07,13,08,33,3.20
2010,07,13,08,34,3.20
2010,07,13,08,35,1.60
2010,07,13,08,36,8.10
2010,07,13,08,37,8.10
2010,07,13,08,38,3.20
2010,07,13,08,39,11.30
2010,07,13,08,40,11.30
2010,07,13,08,41,9.60
2010,07,13,08,42,8.10
2010,07,13,08,43,8.10
2010,07,13,08,44,6.40
2010,07,13,08,45,1.60
2010,07,13,08,46,3.20
2010,07,13,08,47,6.40
2010,07,13,08,48,4.80
2010,07,13,08,49,8.10
2010,07,13,08,50,6.40
2010,07,13,08,51,8.10
2010,07,13,08,52,9.60
2010,07,13,08,53,6.40
2010,07,13,08,54,3.20
2010,07,13,08,55,6.40
2010,07,13,08,56,8.10
2010,07,13,08,57,8.10
2010,07,13,08,58,6.40
2010,07,13,08,59,6.40
2010,07,13,09,00,8.10
2010,07,13,09,01,6.40
2010,07,13,09,02,3.20
2010,07,13,09,03,9.60
2010,07,13,09,04,4.80
2010,07,13,09,05,4.80
2010,07,13,09,06,1.60
2010,07,13,09,07,6.40
2010,07,13,09,08,6.40
2010,07,13,09,09,11.30
2010,07,13,09,10,11.30
2010,07,13,09,11,11.30
2010,07,13,09,12,8.10
2010,07,13,09,13,6.40
2010,07,13,09,14,6.40
2010,07,13,09,15,9.60
2010,07,13,09,16,9.60
2010,07,13,09,17,14.50
2010,07,13,09,18,8.10
2010,07,13,09,19,4.80
2010,07,13,09,20,6.40
2010,07,13,09,21,4.80
2010,07,13,09,22,6.40
2010,07,13,09,23,6.40
2010,07,13,09,24,9.60
2010,07,13,09,25,9.60
2010,07,13,09,26,6.40
2010,07,13,09,27,8.10
2010,07,13,09,28,3.20
2010,07,13,09,29,8.10
2010,07,13,09,30,11.30
2010,07,13,09,32,6.40
2010,07,13,09,33,9.60
2010,07,13,09,34,9.60
2010,07,13,09,35,8.10
2010,07,13,09,36,9.60
2010,07,13,09,37,8.10
2010,07,13,09,38,9.60
2010,07,13,09,39,9.60
2010,07,13,09,40,9.60
2010,07,13,09,41,9.60
2010,07,13,09,42,8.10
2010,07,13,09,43,9.60
2010,07,13,09,44,9.60
2010,07,13,09,45,9.60
2010,07,13,09,47,8.10
2010,07,13,09,48,9.60
2010,07,13,09,49,6.40
2010,07,13,09,50,9.60
2010,07,13,09,51,11.30
2010,07,13,09,52,8.10
2010,07,13,09,53,11.30
2010,07,13,09,54,9.60
2010,07,13,09,55,6.40
2010,07,13,09,56,6.40
2010,07,13,09,57,9.60
2010,07,13,09,58,9.60
2010,07,13,09,59,6.40
2010,07,13,10,00,6.40
2010,07,13,10,01,8.10
2010,07,13,10,02,16.10
2010,07,13,10,03,6.40
2010,07,13,10,04,9.60
2010,07,13,10,05,9.60
2010,07,13,10,06,12.90
2010,07,13,10,07,6.40
2010,07,13,10,08,11.30
2010,07,13,10,09,12.90
2010,07,13,10,10,9.60
2010,07,13,10,11,9.60
2010,07,13,10,12,9.60
2010,07,13,10,13,8.10
2010,07,13,10,14,9.60
2010,07,13,10,15,14.50
2010,07,13,10,16,17.70
2010,07,13,10,17,11.30
2010,07,13,10,18,11.30
2010,07,13,10,19,11.30
2010,07,13,10,20,9.60
2010,07,13,10,21,6.40
2010,07,13,10,22,6.40
2010,07,13,10,23,8.10
2010,07,13,10,24,8.10
2010,07,13,10,25,4.80
2010,07,13,10,26,6.40
2010,07,13,10,27,11.30
2010,07,13,10,28,11.30
2010,07,13,10,29,16.10
2010,07,13,10,30,12.90
2010,07,13,10,31,8.10
2010,07,13,10,32,6.40
2010,07,13,10,33,9.60
2010,07,13,10,34,9.60
2010,07,13,10,35,9.60
2010,07,13,10,36,8.10
2010,07,13,10,37,9.60
2010,07,13,10,38,8.10
2010,07,13,10,39,8.10
2010,07,13,10,40,11.30
2010,07,13,10,41,9.60
2010,07,13,10,42,6.40
2010,07,13,10,43,9.60
2010,07,13,10,44,11.30
2010,07,13,10,45,9.60
2010,07,13,10,46,12.90
2010,07,13,10,47,8.10
2010,07,13,10,48,11.30
2010,07,13,10,49,8.10
2010,07,13,10,50,11.30
2010,07,13,10,51,12.90
2010,07,13,10,52,12.90
2010,07,13,10,53,9.60
2010,07,13,10,54,11.30
2010,07,13,10,55,4.80
2010,07,13,10,56,8.10
2010,07,13,10,57,8.10
2010,07,13,10,58,11.30
2010,07,13,10,59,6.40
2010,07,13,11,00,8.10
2010,07,13,11,01,8.10
2010,07,13,11,02,17.70
2010,07,13,11,03,16.10
2010,07,13,11,04,14.50
2010,07,13,11,05,16.10
2010,07,13,11,06,12.90
2010,07,13,11,07,11.30
2010,07,13,11,08,9.60
2010,07,13,11,09,11.30
2010,07,13,11,10,11.30
2010,07,13,11,11,8.10
2010,07,13,11,12,9.60
2010,07,13,11,13,14.50
2010,07,13,11,14,16.10
2010,07,13,11,15,16.10
2010,07,13,11,16,19.30
2010,07,13,11,17,11.30
2010,07,13,11,18,8.10
2010,07,13,11,19,11.30
2010,07,13,11,20,16.10
2010,07,13,11,21,16.10
2010,07,13,11,22,14.50
2010,07,13,11,23,8.10
2010,07,13,11,24,14.50
2010,07,13,11,25,9.60
2010,07,13,11,26,11.30
2010,07,13,11,27,11.30
2010,07,13,11,28,6.40
2010,07,13,11,29,6.40
2010,07,13,11,30,6.40
2010,07,13,11,31,6.40
2010,07,13,11,32,9.60
2010,07,13,11,33,11.30
2010,07,13,11,34,16.10
2010,07,13,11,35,17.70
2010,07,13,11,36,11.30
2010,07,13,11,37,9.60
2010,07,13,11,38,12.90
2010,07,13,11,39,14.50
2010,07,13,11,40,12.90
2010,07,13,11,41,9.60
2010,07,13,11,42,14.50
2010,07,13,11,43,8.10
2010,07,13,11,44,6.40
2010,07,13,11,45,11.30
2010,07,13,11,46,17.70
2010,07,13,11,47,11.30
2010,07,13,11,48,9.60
2010,07,13,11,49,9.60
2010,07,13,11,50,16.10
2010,07,13,11,51,16.10
2010,07,13,11,52,20.90
2010,07,13,11,53,20.90
2010,07,13,11,54,9.60
2010,07,13,11,55,14.50
2010,07,13,11,56,16.10
2010,07,13,11,57,11.30
2010,07,13,11,58,16.10
2010,07,13,11,59,11.30
2010,07,13,12,00,11.30
2010,07,13,12,01,14.50
2010,07,13,12,02,12.90
2010,07,13,12,03,11.30
2010,07,13,12,04,8.10
2010,07,13,12,05,11.30
2010,07,13,12,06,9.60
2010,07,13,12,07,16.10
2010,07,13,12,08,19.30
2010,07,13,12,09,16.10
2010,07,13,12,10,17.70
2010,07,13,12,11,16.10
2010,07,13,12,12,17.70
2010,07,13,12,13,14.50
2010,07,13,12,14,11.30
2010,07,13,12,15,9.60
2010,07,13,12,16,16.10
2010,07,13,12,17,14.50
2010,07,13,12,18,8.10
2010,07,13,12,19,12.90
2010,07,13,12,20,8.10
2010,07,13,12,21,4.80
2010,07,13,12,22,9.60
2010,07,13,12,23,17.70
2010,07,13,12,24,12.90
2010,07,13,12,25,14.50
2010,07,13,12,26,14.50
2010,07,13,12,27,11.30
2010,07,13,12,28,14.50
2010,07,13,12,29,9.60
2010,07,13,12,30,11.30
2010,07,13,12,31,12.90
2010,07,13,12,32,12.90
2010,07,13,12,33,12.90
2010,07,13,12,34,16.10
2010,07,13,12,35,8.10
2010,07,13,12,36,8.10
2010,07,13,12,37,11.30
2010,07,13,12,38,6.40
2010,07,13,12,39,12.90
2010,07,13,12,40,9.60
2010,07,13,12,41,14.50
2010,07,13,12,42,11.30
2010,07,13,12,43,9.60
2010,07,13,12,44,8.10
2010,07,13,12,45,9.60
2010,07,13,12,46,16.10
2010,07,13,12,47,14.50
2010,07,13,12,48,11.30
2010,07,13,12,49,11.30
2010,07,13,12,50,17.70
2010,07,13,12,51,17.70
2010,07,13,12,52,9.60
2010,07,13,12,53,4.80
2010,07,13,12,54,11.30
2010,07,13,12,55,9.60
2010,07,13,12,56,9.60
2010,07,13,12,57,9.60
2010,07,13,12,58,14.50
2010,07,13,12,59,8.10
2010,07,13,13,00,6.40
2010,07,13,13,01,6.40
2010,07,13,13,02,11.30
2010,07,13,13,03,6.40
2010,07,13,13,04,9.60
2010,07,13,13,05,9.60
2010,07,13,13,06,16.10
2010,07,13,13,07,8.10
2010,07,13,13,08,11.30
2010,07,13,13,09,11.30
2010,07,13,13,10,11.30
2010,07,13,13,11,16.10
2010,07,13,13,12,16.10
2010,07,13,13,13,11.30
2010,07,13,13,14,8.10
2010,07,13,13,15,6.40
2010,07,13,13,16,11.30
2010,07,13,13,17,11.30
2010,07,13,13,18,6.40
2010,07,13,13,19,8.10
2010,07,13,13,20,16.10
2010,07,13,13,21,12.90
2010,07,13,13,22,9.60
2010,07,13,13,23,14.50
2010,07,13,13,24,9.60
2010,07,13,13,25,16.10
2010,07,13,13,26,8.10
2010,07,13,13,27,8.10
2010,07,13,13,28,8.10
2010,07,13,13,29,8.10
2010,07,13,13,30,9.60
2010,07,13,13,31,11.30
2010,07,13,13,32,14.50
2010,07,13,13,33,12.90
2010,07,13,13,34,4.80
2010,07,13,13,35,9.60
2010,07,13,13,36,11.30
2010,07,13,13,37,6.40
2010,07,13,13,38,4.80
2010,07,13,13,39,8.10
2010,07,13,13,40,8.10
2010,07,13,13,41,8.10
2010,07,13,13,42,16.10
2010,07,13,13,43,8.10
2010,07,13,13,44,6.40
2010,07,13,13,45,9.60
2010,07,13,13,46,11.30
2010,07,13,13,47,16.10
2010,07,13,13,48,9.60
2010,07,13,13,49,9.60
2010,07,13,13,50,11.30
2010,07,13,13,51,8.10
2010,07,13,13,52,14.50
2010,07,13,13,53,9.60
2010,07,13,13,54,6.40
2010,07,13,13,55,14.50
2010,07,13,13,56,16.10
2010,07,13,13,57,12.90
2010,07,13,13,58,19.30
2010,07,13,13,59,11.30
2010,07,13,14,00,11.30
2010,07,13,14,01,9.60
2010,07,13,14,02,12.90
2010,07,13,14,03,9.60
2010,07,13,14,04,6.40
2010,07,13,14,05,11.30
2010,07,13,14,06,11.30
2010,07,13,14,07,16.10
2010,07,13,14,08,8.10
2010,07,13,14,09,14.50
2010,07,13,14,10,11.30
2010,07,13,14,11,16.10
2010,07,13,14,12,14.50
2010,07,13,14,13,11.30
2010,07,13,14,14,16.10
2010,07,13,14,15,19.30
2010,07,13,14,16,17.70
2010,07,13,14,17,16.10
2010,07,13,14,18,14.50
2010,07,13,14,19,14.50
2010,07,13,14,20,8.10
2010,07,13,14,21,12.90
2010,07,13,14,22,11.30
2010,07,13,14,23,9.60
2010,07,13,14,24,11.30
2010,07,13,14,25,11.30
2010,07,13,14,26,11.30
2010,07,13,14,27,17.70
2010,07,13,14,28,17.70
2010,07,13,14,29,14.50
2010,07,13,14,30,6.40
2010,07,13,14,31,11.30
2010,07,13,14,32,19.30
2010,07,13,14,33,11.30
2010,07,13,14,34,17.70
2010,07,13,14,35,14.50
2010,07,13,14,36,11.30
2010,07,13,14,37,9.60
2010,07,13,14,38,9.60
2010,07,13,14,39,16.10
2010,07,13,14,40,12.90
2010,07,13,14,41,14.50
2010,07,13,14,42,11.30
2010,07,13,14,43,16.10
2010,07,13,14,44,16.10
2010,07,13,14,45,17.70
2010,07,13,14,46,16.10
2010,07,13,14,47,11.30
2010,07,13,14,48,8.10
2010,07,13,14,49,22.50
2010,07,13,14,50,22.50
2010,07,13,14,51,14.50
2010,07,13,14,52,20.90
2010,07,13,14,53,14.50
2010,07,13,14,54,16.10
2010,07,13,14,55,14.50
2010,07,13,14,56,14.50
2010,07,13,14,57,16.10
2010,07,13,14,58,19.30
2010,07,13,14,59,14.50
2010,07,13,15,00,16.10
2010,07,13,15,01,14.50
2010,07,13,15,02,17.70
2010,07,13,15,03,17.70
2010,07,13,15,04,22.50
2010,07,13,15,05,20.90
2010,07,13,15,06,16.10
2010,07,13,15,07,16.10
2010,07,13,15,08,11.30
2010,07,13,15,09,17.70
2010,07,13,15,10,20.90
2010,07,13,15,11,22.50
2010,07,13,15,12,17.70
2010,07,13,15,13,19.30
2010,07,13,15,14,17.70
2010,07,13,15,15,14.50
2010,07,13,15,16,14.50
2010,07,13,15,17,14.50
2010,07,13,15,18,11.30
2010,07,13,15,19,16.10
2010,07,13,15,20,16.10
2010,07,13,15,21,12.90
2010,07,13,15,22,11.30
2010,07,13,15,23,9.60
2010,07,13,15,24,12.90
2010,07,13,15,25,6.40
2010,07,13,15,26,16.10
2010,07,13,15,27,19.30
2010,07,13,15,28,16.10
2010,07,13,15,29,9.60
2010,07,13,15,30,9.60
2010,07,13,15,31,16.10
2010,07,13,15,32,19.30
2010,07,13,15,33,14.50
2010,07,13,15,34,14.50
2010,07,13,15,35,20.90
2010,07,13,15,36,16.10
2010,07,13,15,37,17.70
2010,07,13,15,38,16.10
2010,07,13,15,39,16.10
2010,07,13,15,40,17.70
2010,07,13,15,41,12.90
2010,07,13,15,42,11.30
2010,07,13,15,43,16.10
2010,07,13,15,44,16.10
2010,07,13,15,45,16.10
2010,07,13,15,46,9.60
2010,07,13,15,47,19.30
2010,07,13,15,48,19.30
2010,07,13,15,49,14.50
2010,07,13,15,50,11.30
2010,07,13,15,51,11.30
2010,07,13,15,52,9.60
2010,07,13,15,53,14.50
2010,07,13,15,54,8.10
2010,07,13,15,55,11.30
2010,07,13,15,56,16.10
2010,07,13,15,57,14.50
2010,07,13,15,58,16.10
2010,07,13,15,59,9.60
2010,07,13,16,00,16.10
2010,07,13,16,01,16.10
2010,07,13,16,02,9.60
2010,07,13,16,03,16.10
2010,07,13,16,04,16.10
2010,07,13,16,05,9.60
2010,07,13,16,06,9.60
2010,07,13,16,07,9.60
2010,07,13,16,08,8.10
2010,07,13,16,09,8.10
2010,07,13,16,10,9.60
2010,07,13,16,11,16.10
2010,07,13,16,12,12.90
2010,07,13,16,13,16.10
2010,07,13,16,14,16.10
2010,07,13,16,15,19.30
2010,07,13,16,16,14.50
2010,07,13,16,17,12.90
2010,07,13,16,18,12.90
2010,07,13,16,19,11.30
2010,07,13,16,20,9.60
2010,07,13,16,21,12.90
2010,07,13,16,22,11.30
2010,07,13,16,23,8.10
2010,07,13,16,24,11.30
2010,07,13,16,25,8.10
2010,07,13,16,26,12.90
2010,07,13,16,27,14.50
2010,07,13,16,28,11.30
2010,07,13,16,29,16.10
2010,07,13,16,30,14.50
2010,07,13,16,31,12.90
2010,07,13,16,32,14.50
2010,07,13,16,33,16.10
2010,07,13,16,34,3.20
2010,07,13,16,35,12.90
2010,07,13,16,36,11.30
2010,07,13,16,37,9.60
2010,07,13,16,38,6.40
2010,07,13,16,39,8.10
2010,07,13,16,40,12.90
2010,07,13,16,41,19.30
2010,07,13,16,42,9.60
2010,07,13,16,43,11.30
2010,07,13,16,44,6.40
2010,07,13,16,45,16.10
2010,07,13,16,46,9.60
2010,07,13,16,47,9.60
2010,07,13,16,48,4.80
2010,07,13,16,49,11.30
2010,07,13,16,50,9.60
2010,07,13,16,51,8.10
2010,07,13,16,52,8.10
2010,07,13,16,53,11.30
2010,07,13,16,54,16.10
2010,07,13,16,55,16.10
2010,07,13,16,56,8.10
2010,07,13,16,57,14.50
2010,07,13,16,58,14.50
2010,07,13,16,59,16.10
2010,07,13,17,00,9.60
2010,07,13,17,01,9.60
2010,07,13,17,02,8.10
2010,07,13,17,03,8.10
2010,07,13,17,04,9.60
2010,07,13,17,05,11.30
2010,07,13,17,06,14.50
2010,07,13,17,07,9.60
2010,07,13,17,08,8.10
2010,07,13,17,09,4.80
2010,07,13,17,10,11.30
2010,07,13,17,11,9.60
2010,07,13,17,12,4.80
2010,07,13,17,13,6.40
2010,07,13,17,14,9.60
2010,07,13,17,15,11.30
2010,07,13,17,16,14.50
2010,07,13,17,17,6.40
2010,07,13,17,18,11.30
2010,07,13,17,19,9.60
2010,07,13,17,20,9.60
2010,07,13,17,21,9.60
2010,07,13,17,22,14.50
2010,07,13,17,23,8.10
2010,07,13,17,24,9.60
2010,07,13,17,25,11.30
2010,07,13,17,26,14.50
2010,07,13,17,27,12.90
2010,07,13,17,28,11.30
2010,07,13,17,29,11.30
2010,07,13,17,30,9.60
2010,07,13,17,31,12.90
2010,07,13,17,32,11.30
2010,07,13,17,33,14.50
2010,07,13,17,34,12.90
2010,07,13,17,35,9.60
2010,07,13,17,36,6.40
2010,07,13,17,37,6.40
2010,07,13,17,38,8.10
2010,07,13,17,39,9.60
2010,07,13,17,40,9.60
2010,07,13,17,41,8.10
2010,07,13,17,42,8.10
2010,07,13,17,43,6.40
2010,07,13,17,44,11.30
2010,07,13,17,45,9.60
2010,07,13,17,46,8.10
2010,07,13,17,47,9.60
2010,07,13,17,48,8.10
2010,07,13,17,49,1.60
2010,07,13,17,50,8.10
2010,07,13,17,51,9.60
2010,07,13,17,52,9.60
2010,07,13,17,53,8.10
2010,07,13,17,54,11.30
2010,07,13,17,55,9.60
2010,07,13,17,56,9.60
2010,07,13,17,57,11.30
2010,07,13,17,58,11.30
2010,07,13,17,59,9.60
2010,07,13,18,00,4.80
2010,07,13,18,01,8.10
2010,07,13,18,02,9.60
2010,07,13,18,03,4.80
2010,07,13,18,04,6.40
2010,07,13,18,05,6.40
2010,07,13,18,06,3.20
2010,07,13,18,07,3.20
2010,07,13,18,08,11.30
2010,07,13,18,09,6.40
2010,07,13,18,10,8.10
2010,07,13,18,11,8.10
2010,07,13,18,12,9.60
2010,07,13,18,13,8.10
2010,07,13,18,14,11.30
2010,07,13,18,15,9.60
2010,07,13,18,16,11.30
2010,07,13,18,17,6.40
2010,07,13,18,18,3.20
2010,07,13,18,19,6.40
2010,07,13,18,20,9.60
2010,07,13,18,21,11.30
2010,07,13,18,22,11.30
2010,07,13,18,23,9.60
2010,07,13,18,24,8.10
2010,07,13,18,25,6.40
2010,07,13,18,26,11.30
2010,07,13,18,27,6.40
2010,07,13,18,28,8.10
2010,07,13,18,29,8.10
2010,07,13,18,30,6.40
2010,07,13,18,31,6.40
2010,07,13,18,32,4.80
2010,07,13,18,33,9.60
2010,07,13,18,34,9.60
2010,07,13,18,35,6.40
2010,07,13,18,36,8.10
2010,07,13,18,37,4.80
2010,07,13,18,38,9.60
2010,07,13,18,39,11.30
2010,07,13,18,40,9.60
2010,07,13,18,41,3.20
2010,07,13,18,42,9.60
2010,07,13,18,43,4.80
2010,07,13,18,44,11.30
2010,07,13,18,45,9.60
2010,07,13,18,46,8.10
2010,07,13,18,47,9.60
2010,07,13,18,48,8.10
2010,07,13,18,49,8.10
2010,07,13,18,50,6.40
2010,07,13,18,51,8.10
2010,07,13,18,52,3.20
2010,07,13,18,53,8.10
2010,07,13,18,54,6.40
2010,07,13,18,55,9.60
2010,07,13,18,56,9.60
2010,07,13,18,57,14.50
2010,07,13,18,58,4.80
2010,07,13,18,59,6.40
2010,07,13,19,00,6.40
2010,07,13,19,01,8.10
2010,07,13,19,02,4.80
2010,07,13,19,03,4.80
2010,07,13,19,04,9.60
2010,07,13,19,05,8.10
2010,07,13,19,06,9.60
2010,07,13,19,07,9.60
2010,07,13,19,08,3.20
2010,07,13,19,09,8.10
2010,07,13,19,10,8.10
2010,07,13,19,11,1.60
2010,07,13,19,12,6.40
2010,07,13,19,13,4.80
2010,07,13,19,14,3.20
2010,07,13,19,15,3.20
2010,07,13,19,16,8.10
2010,07,13,19,17,6.40
2010,07,13,19,18,8.10
2010,07,13,19,19,6.40
2010,07,13,19,20,8.10
2010,07,13,19,21,1.60
2010,07,13,19,22,11.30
2010,07,13,19,23,9.60
2010,07,13,19,24,9.60
2010,07,13,19,25,8.10
2010,07,13,19,26,1.60
2010,07,13,19,27,4.80
2010,07,13,19,28,6.40
2010,07,13,19,29,6.40
2010,07,13,19,30,8.10
2010,07,13,19,31,1.60
2010,07,13,19,32,6.40
2010,07,13,19,33,12.90
2010,07,13,19,34,4.80
2010,07,13,19,35,9.60
2010,07,13,19,36,6.40
2010,07,13,19,37,14.50
2010,07,13,19,38,9.60
2010,07,13,19,39,6.40
2010,07,13,19,40,6.40
2010,07,13,19,41,8.10
2010,07,13,19,42,9.60
2010,07,13,19,43,8.10
2010,07,13,19,44,9.60
2010,07,13,19,45,8.10
2010,07,13,19,47,8.10
2010,07,13,19,48,9.60
2010,07,13,19,49,8.10
2010,07,13,19,50,9.60
2010,07,13,19,51,8.10
2010,07,13,19,52,8.10
2010,07,13,19,53,6.40
2010,07,13,19,54,9.60
2010,07,13,19,55,8.10
2010,07,13,19,56,8.10
2010,07,13,19,57,3.20
2010,07,13,19,58,8.10
2010,07,13,19,59,6.40
2010,07,13,20,00,3.20
2010,07,13,20,01,6.40
2010,07,13,20,02,4.80
2010,07,13,20,03,8.10
2010,07,13,20,04,6.40
2010,07,13,20,05,8.10
2010,07,13,20,06,8.10
2010,07,13,20,07,11.30
2010,07,13,20,08,8.10
2010,07,13,20,09,6.40
2010,07,13,20,10,9.60
2010,07,13,20,11,9.60
2010,07,13,20,12,4.80
2010,07,13,20,13,8.10
2010,07,13,20,14,9.60
2010,07,13,20,15,8.10
2010,07,13,20,16,6.40
2010,07,13,20,17,3.20
2010,07,13,20,18,9.60
2010,07,13,20,19,6.40
2010,07,13,20,20,6.40
2010,07,13,20,21,11.30
2010,07,13,20,22,9.60
2010,07,13,20,23,4.80
2010,07,13,20,24,9.60
2010,07,13,20,25,8.10
2010,07,13,20,26,8.10
2010,07,13,20,27,6.40
2010,07,13,20,28,6.40
2010,07,13,20,29,8.10
2010,07,13,20,30,8.10
2010,07,13,20,31,6.40
2010,07,13,20,32,4.80
2010,07,13,20,33,3.20
2010,07,13,20,34,9.60
2010,07,13,20,35,11.30
2010,07,13,20,36,8.10
2010,07,13,20,37,14.50
2010,07,13,20,38,9.60
2010,07,13,20,39,9.60
2010,07,13,20,40,9.60
2010,07,13,20,41,8.10
2010,07,13,20,42,6.40
2010,07,13,20,43,8.10
2010,07,13,20,44,9.60
2010,07,13,20,45,8.10
2010,07,13,20,46,8.10
2010,07,13,20,47,4.80
2010,07,13,20,48,4.80
2010,07,13,20,49,4.80
2010,07,13,20,50,6.40
2010,07,13,20,51,8.10
2010,07,13,20,52,8.10
2010,07,13,20,53,11.30
2010,07,13,20,54,6.40
2010,07,13,20,55,4.80
2010,07,13,20,56,1.60
2010,07,13,20,57,1.60
2010,07,13,20,58,9.60
2010,07,13,20,59,12.90
2010,07,13,21,00,8.10
2010,07,13,21,01,4.80
2010,07,13,21,02,4.80
2010,07,13,21,03,1.60
2010,07,13,21,04,9.60
2010,07,13,21,05,8.10
2010,07,13,21,06,6.40
2010,07,13,21,07,9.60
2010,07,13,21,08,4.80
2010,07,13,21,09,1.60
2010,07,13,21,10,9.60
2010,07,13,21,11,9.60
2010,07,13,21,12,6.40
2010,07,13,21,13,9.60
2010,07,13,21,14,8.10
2010,07,13,21,15,8.10
2010,07,13,21,16,6.40
2010,07,13,21,17,4.80
2010,07,13,21,18,6.40
2010,07,13,21,19,6.40